Flag for France Weather past 2 weeks in Lille, France

Now
52 °F

Scattered clouds.


Feels Like: 48 °F
Forecast: 49 / 63 °F
Wind: 12 mph from Northeast

Location: Lille Airport


UV Index: 3 (Moderate)

Visibility: N/A


Pressure: 30.04 "Hg

Humidity: 54%

Dew point: 36 °F

Location of LilleLocation

Historic Weather in Lille

°F

Lille temperature yesterday

Maximum temperature yesterday: 54 °F (at 12:00 AM)
Minimum temperature yesterday: 46 °F (at 7:00 AM)
Average temperature yesterday: 50 °F

Past Weeks' High & Low Weather Summary

 TemperatureHumidityPressure
High72 °F (Apr 7, 4:00 PM)100% (Apr 5, 7:00 AM)30.42 "Hg (Apr 5, 7:00 AM)
Low37 °F (Apr 15, 4:00 AM)28% (Apr 17, 6:00 PM)29.74 "Hg (Apr 7, 5:30 PM)
Average52 °F68%30.12 "Hg
* Reported Apr 4 11:30 AM — Apr 19 11:00 AM, Lille, Weather by CustomWeather, © 2014

Note: Actual official high and low records may vary slightly from our data, if they occured in-between our weather recording intervals... More about our weather records

Advertising

Historic Weather Conditions — Data for Previous 24 hours

 ConditionsComfort  
Time TempWeatherWind HumidityBarometerVisibility
11:00 AM
Apr 19
50 °FScattered clouds.9 mph62%30.04 "HgN/A
10:30 AM48 °FScattered clouds.9 mph66%30.04 "HgN/A
10:00 AM46 °FBroken clouds.12 mph71%30.04 "HgN/A
9:30 AM46 °FBroken clouds.10 mph71%30.04 "HgN/A
9:00 AM46 °FScattered clouds.8 mph76%30.04 "HgN/A
8:30 AM45 °FBroken clouds.8 mph76%30.04 "HgN/A
7:30 AM43 °FPassing clouds.7 mph81%30.01 "HgN/A
7:00 AM43 °FClear.9 mph76%30.01 "Hg10 mi
6:30 AM43 °FClear.7 mph76%30.01 "Hg10 mi
6:00 AM45 °FClear.9 mph71%30.01 "Hg10 mi
5:00 AM45 °FClear.9 mph71%30.01 "Hg10 mi
4:30 AM46 °FOvercast.10 mph66%30.01 "HgN/A
4:00 AM46 °FOvercast.10 mph66%30.01 "HgN/A
3:30 AM46 °FOvercast.10 mph66%30.04 "HgN/A
3:00 AM46 °FOvercast.7 mph66%30.04 "HgN/A
2:30 AM46 °FOvercast.7 mph62%30.04 "HgN/A
2:00 AM46 °FPassing clouds.7 mph62%30.04 "HgN/A
1:00 AM46 °FPassing clouds.9 mph62%30.07 "HgN/A
12:00 AM46 °FClear.12 mph62%30.07 "Hg10 mi
11:00 PM
Apr 18
46 °FPassing clouds.12 mph66%30.07 "HgN/A
10:00 PM46 °FClear.10 mph66%30.07 "Hg10 mi
9:30 PM46 °FSunny.13 mph71%30.07 "Hg10 mi
9:00 PM48 °FScattered clouds.15 mph62%30.07 "HgN/A
8:30 PM48 °FScattered clouds.14 mph66%30.07 "HgN/A
8:00 PM48 °FScattered clouds.13 mph66%30.07 "HgN/A
7:30 PM48 °FScattered clouds.15 mph62%30.07 "HgN/A
7:00 PM50 °FScattered clouds.16 mph58%30.07 "HgN/A
6:30 PM52 °FScattered clouds.13 mph54%30.07 "HgN/A
6:00 PM52 °FScattered clouds.16 mph50%30.07 "HgN/A
5:30 PM54 °FScattered clouds.16 mph44%30.07 "HgN/A
5:00 PM54 °FScattered clouds.13 mph47%30.07 "HgN/A
4:00 PM52 °FScattered clouds.18 mph44%30.07 "HgN/A
3:30 PM52 °FScattered clouds.16 mph50%30.07 "HgN/A
3:00 PM52 °FScattered clouds.17 mph50%30.07 "HgN/A
2:30 PM54 °FScattered clouds.16 mph44%30.07 "HgN/A
2:00 PM54 °FScattered clouds.14 mph47%30.07 "HgN/A
1:30 PM54 °FScattered clouds.15 mph47%30.07 "HgN/A
1:00 PM52 °FScattered clouds.16 mph50%30.07 "HgN/A
12:30 PM54 °FScattered clouds.15 mph47%30.07 "HgN/A
12:00 PM54 °FPartly sunny.15 mph51%30.04 "HgN/A
Weather by CustomWeather, © 2014

See weather overview